Weather in Yushkovo

Russia / Smolensk Oblast     55°00′27″N   34°19′17″E
В апреле 2022 года жителям России запретили посещать сайт meteo.paraplan.net по решению Генеральной прокуратуры. Аудитория сайта уменьшилась в 10 раз. Владельцы сайта не видят смысла в поддержке погодного сервера в таких условиях. Сайт будет закрыт в октябре.
temp.,
°C
wind,
m/s
gust,
m/s
humid.,
%
clouds,
%
prec.,
mm/h
press.,
hPa
HPBL,
m
4 october, tue
tue400:00+5s61297100 1.1 9961011
03:00+4sse61397100 1.8 998968
06:00+4s51297100 0.4 10001061
09:00+4s51091100 0.6 10021017
12:00+4s51096100 0.3 10041000
15:00+4s4997100 0.9 1005934
18:00+4ssw3797100 1.0 1006874
21:00+4ssw3698100 1.9 1007797
5 october, wed
wed500:00+5sw3696100 0.4 1008838
03:00+5sw2698100 1.8 1009915
06:00+4w3692100 0.7 1010790
09:00+5w389487 0.9 1012698
12:00+5w3695100 0.2 1014770
15:00+5wsw2796100 0.4 1016494
18:00+6w3892100 0.1 1017469
21:00+5wsw289798 0.1 1017241
6 october, thu
thu600:00+6wsw2899100 0.5 1018373
03:00+7wsw2699100 1.0 1018337
06:00+7wsw2699100 0.1 1018227
09:00+8sw2798100 0.1 1018257
12:00+9sw279682 0.0 1018298
15:00+14sw378025 0.0 1017764
18:00+11sw39910 0.0 1017296
21:00+10sw4139491 0.0 1017405
7 october, fri
fri700:00+10wsw4129541 0.0 1017370
03:00+11w5129460 0.0 1019748
06:00+9w4119662 0.0 1021504
09:00+9wnw51189100 0.0 1023646
12:00+11w597317 0.0 1024804
15:00+12w4872100 0.0 10251076
18:00+8wsw37860 0.0 1025177
21:00+7wsw39940 0.0 1026184
8 october, sat
sat800:00+6wsw27954 0.0 1026137
03:00+6sw25975 0.0 1026106
06:00+5sw27977 0.0 1025135
09:00+8sw389022 0.0 1025261
12:00+12ssw487030 0.0 1023702
15:00+14ssw586449 0.0 1020970
18:00+10ssw41178100 0.0 1019432
21:00+10ssw51481100 0.0 1018653